User: anonymous   Login
Location: Bakov nad Jizerou
(50.4784°N, 14.9394°E)
Time: 14:03:26
(UTC+00:00)
Language:

GP-B - Orbit

View from above orbital plane
View from above orbital plane
View from above satellite
View from above satellite

Ground track
Ground track

The orbit data is extracted from the following two-line orbital elements,

1 28230U 04014A   21262.89452380  .00000135  00000-0  16106-4 0  9993
2 28230  89.8080  87.9896 0002838  75.0050 285.1487 14.78836110396164
Epoch (UTC): 19 September 2021 21:28:06
Eccentricity: 0.0002838
inclination: 89.8080°
perigee height: 631 km
apogee height: 635 km
right ascension of ascending node: 87.9896°
argument of perigee: 75.0050°
revolutions per day: 14.78836110
mean anomaly at epoch: 285.1487°
orbit number at epoch: 39616

The dashed part of the orbit path shows where the satellite is in the earth's shadow,  

DLR